#timestamp,LO_Frequency,Hit 
1500354015.6,286048236.6,N
1500354035.4,286048237.0,N
1500354055.2,286048236.6,N
1500354075.1,286048236.9,N
1500354076.0,286048236.9,N
1500354095.8,286048236.7,N
1500354115.7,286048237.0,N
1500354135.5,286048237.8,N
1500354155.3,286048236.6,N
1500354175.2,286048239.2,N
1500354195.0,286048238.1,N
1500354195.9,286048238.1,N
1500354215.8,286048240.9,N
1500354235.6,286048242.4,N
1500354255.4,286048238.4,N
1500354275.3,286048239.0,N
1500354295.1,286048238.6,N
1500354315.8,286048241.1,N
1500354335.7,286048238.9,N
1500354355.5,286048239.0,N
1500354375.4,286048239.0,N
1500354395.2,286048238.8,N
1500354415.0,286048238.1,N
1500354415.9,286048238.1,N
1500354435.8,286048240.7,N
1500354455.6,286048240.7,N
1500354475.5,286048240.9,N
1500354495.3,286048241.1,N
1500354515.1,286048238.1,N
1500354535.9,286048238.9,N
1500354555.7,286048239.0,N
1500354575.5,286048240.8,N
1500354595.4,286048240.3,N
1500354615.2,286048240.4,N
1500354635.1,286048239.5,N
1500354636.0,286048239.5,N
1500354655.8,286048236.9,N
1500354675.6,286048239.6,N
1500354695.5,286048240.8,N
1500354715.3,286048238.9,N
1500354735.1,286048240.8,N
1500354755.9,286048241.2,N
1500354775.7,286048241.0,N
1500354795.6,286048240.5,N
1500354815.4,286048241.0,N
1500354835.2,286048238.4,N
1500354855.1,286048241.2,N
1500354856.0,286048241.2,N
1500354875.8,286048240.7,N
1500354895.6,286048238.6,N
1500354915.5,286048238.4,N
1500354935.3,286048239.5,N
1500354955.2,286048238.3,N
1500354975.9,286048236.9,N
1500354995.7,286048236.5,N
1500355015.6,286048238.3,N
1500355035.4,286048238.5,N
1500355055.3,286048240.9,N
1500355075.1,286048242.8,N
1500355076.0,286048242.8,N
1500355095.8,286048242.3,N
1500355115.7,286048242.1,N
1500355135.5,286048241.6,N
1500355155.3,286048242.6,N
1500355175.2,286048242.1,N
1500355195.0,286048243.9,N
1500355195.9,286048243.9,N
1500355215.8,286048241.3,N
1500355235.6,286048244.1,N
1500355255.4,286048243.8,N
1500355275.3,286048244.2,N
1500355295.1,286048242.8,N
1500355315.9,286048242.8,N
1500355335.7,286048238.1,N
1500355355.5,286048238.5,N
1500355375.4,286048240.6,N
1500355395.2,286048240.3,N
1500355415.0,286048241.1,N
1500355415.9,286048241.1,N
1500355435.8,286048238.6,N
1500355455.6,286048238.2,N
1500355475.5,286048239.4,N
1500355495.3,286048238.9,N
1500355515.1,286048239.2,N
1500355535.9,286048239.6,N
1500355555.7,286048238.9,N
1500355575.6,286048238.3,N
1500355595.4,286048236.7,N
1500355615.2,286048236.5,N
1500355635.1,286048236.6,N
1500355636.0,286048236.6,N
1500355655.8,286048239.6,N
1500355675.7,286048239.0,N
1500355695.5,286048236.7,N
1500355715.3,286048238.7,N
1500355735.2,286048239.1,N
1500355755.0,286048239.0,N
1500355755.9,286048239.0,N
1500355775.7,286048239.1,N
1500355795.6,286048237.4,N
1500355815.4,286048235.4,N
1500355835.3,286048235.7,N
1500355855.1,286048235.5,N
1500355856.0,286048235.5,N
1500355875.8,286048235.5,N
1500355895.7,286048235.6,N
1500355915.5,286048235.6,N
1500355935.3,286048236.3,N
1500355955.2,286048236.1,N
1500355975.0,286048235.9,N
1500355975.9,286048235.9,N
1500355995.8,286048235.8,N
1500356015.6,286048236.4,N
1500356035.4,286048233.8,N
1500356055.3,286048233.9,N
1500356075.1,286048231.8,N
1500356095.9,286048234.2,N
1500356115.7,286048233.7,N
1500356135.5,286048233.7,N
1500356155.4,286048233.6,N
1500356175.2,286048234.4,N
1500356195.0,286048232.3,N
1500356195.9,286048232.3,N
1500356215.8,286048231.7,N
1500356235.6,286048232.0,N
1500356255.5,286048230.6,N
1500356275.3,286048232.7,N
1500356295.1,286048230.6,N
1500356315.9,286048230.4,N
1500356335.7,286048230.5,N
1500356355.5,286048232.7,N
1500356375.4,286048230.2,N
1500356395.2,286048230.5,N
1500356415.1,286048230.1,N
1500356416.0,286048230.1,N
1500356435.8,286048230.9,N
1500356455.6,286048230.8,N
1500356475.5,286048230.7,N
1500356495.3,286048230.1,N
1500356515.2,286048233.2,N
1500356535.9,286048230.7,N
1500356555.7,286048230.7,N
1500356575.6,286048230.7,N
1500356595.4,286048230.2,N
1500356615.3,286048230.8,N
1500356635.1,286048231.6,N
1500356636.0,286048231.6,N
1500356655.8,286048228.8,N
1500356675.7,286048229.4,N
1500356695.5,286048227.1,N
1500356715.4,286048227.8,N
1500356735.2,286048227.2,N
1500356755.0,286048227.3,N
1500356755.9,286048227.3,N
1500356775.8,286048228.7,N
1500356795.6,286048229.8,N
1500356815.5,286048229.3,N
1500356835.3,286048229.1,N
1500356855.1,286048227.8,N
1500356875.9,286048227.2,N
1500356895.7,286048228.7,N
1500356915.5,286048231.5,N
1500356935.4,286048228.5,N
1500356955.2,286048228.5,N
1500356975.1,286048229.3,N
1500356976.0,286048229.3,N
1500356995.8,286048229.0,N
1500357015.6,286048228.7,N
1500357035.5,286048231.3,N
1500357055.3,286048230.8,N
1500357075.1,286048230.3,N
1500357095.9,286048232.6,N
1500357115.7,286048233.1,N
1500357135.6,286048230.5,N
1500357155.4,286048230.4,N
1500357175.2,286048231.6,N
1500357195.1,286048230.9,N
1500357196.0,286048230.9,N
1500357215.8,286048230.2,N
1500357235.7,286048231.0,N
1500357255.5,286048231.3,N
1500357275.3,286048231.4,N
1500357295.2,286048231.2,N
1500357315.0,286048231.3,N
1500357315.9,286048231.3,N
1500357335.7,286048230.9,N
1500357355.6,286048231.3,N
1500357375.4,286048230.8,N
1500357395.3,286048230.3,N
1500357415.1,286048230.4,N
1500357416.0,286048230.4,N
1500357435.8,286048230.1,N
1500357455.7,286048232.5,N
1500357475.5,286048232.5,N
1500357495.4,286048230.1,N
1500357515.2,286048232.4,N
1500357535.0,286048232.8,N
1500357535.9,286048232.8,N
1500357555.8,286048232.5,N
1500357575.6,286048232.6,N
1500357595.5,286048232.8,N
